HAIYANG 1D

导读

HAIYANG 1D(海洋一号D)是中国于北京时间2020年6月10日发射的第四颗海洋水色卫星,它与海洋一号C星组网,建成中国首个海洋民用业务卫星星座,填补中国海洋水色卫星无下午观测数据的空白。卫星配置五大载荷,可获取全球水色水温、海岸带环境等数据,服务于海洋监测、气候变化研究等多个领域,开启中国自然资源卫星陆海统筹发展新时代。

Basic Information
目录编号:
45721
目录名称:
HAIYANG 1D
国际标识:
2020-036A
轨道中心:
EARTH
卫星名称:
HAIYANG 1D
卫星全名:
--
卫星状态:
在轨 (已飞行2278 天)
发射日期:
2020-06-10 UTC
国别 :
中国 (CN)
星等 :
--
Orbit Information
数据来源 国际轨道数据
星历时间: 2026-09-05T14:34:27+0800
7小时前
查看轨道信息
半长轴: 7155.878km
偏心率: 0.0001521
轨道倾角: 98.459°
近地点辐角 283.463°
升交点赤经 188.225°
平近点角 76.639°
近地点: 776.652km
远地点: 778.83km
周期: 100.405分钟
每日圈数: 14.341957
Detailed Information
使用方式:
暂无
2D Orbit Map
3D Orbit Map
Orbit Altitude Analysis Chart
Orbit Inclination Analysis Chart
Orbit Comprehensive Analysis Chart
View Comprehensive Chart
Conjunction Data List
Event ID Objects TCA Miss Dist (km) Collision Risk Probability Collision Risk Index (CRI) Action
CDM_260907-111904-572105-977923
OBJECT G (59779)
2026-09-07T
11:19:49+0000
0.355 km
远距离
3.958511E-4 高风险 0.87
CDM_260901-063003-044204-572126
2026-09-01T
06:30:07+0000
0.886 km
远距离
4.050489E-5 中风险 0.67
CDM_260907-144004-572105-978023
OBJECT H (59780)
2026-09-07T
14:40:44+0000
1.070 km
极远距离
2.144285E-5 中风险 0.62
CDM_260829-195604-572106-835424
2026-08-29T
19:56:18+0000
1.539 km
极远距离
4.67243E-6 低风险 0.48
CDM_260905-164901-859204-572126
2026-09-05T
16:49:40+0000
2.223 km
极远距离
2.234203E-6 低风险 0.42
CDM_260906-045004-357604-572124
2026-09-06T
04:50:47+0000
2.613 km
极远距离
1.627912E-6 低风险 0.39
CDM_260906-040004-357604-572124
2026-09-06T
04:00:33+0000
2.781 km
极远距离
1.477514E-6 低风险 0.38
CDM_260901-084003-583404-572126
2026-09-01T
08:40:57+0000
2.474 km
极远距离
7.928169E-7 极低风险 0.33